Home > Weather > Glennallen > Past weeks

Flag for USA Weather for the Past 2 Weeks in Glennallen, Alaska, USA

Now
35 °F

Passing clouds.


Feels Like: 28 °F
Forecast: 31 / 52 °F
Wind: 9 mph from South

Location: Gulkana Airport

Current Time: Apr 29, 2016 at 6:10:15 AM

Latest Report: Apr 29, 2016 at 4:53 AM


Visibility: 10 mi

Pressure: 29.79 "Hg

Humidity: 70%

Dew Point: 26 °F

Location of GlennallenLocation

Historic Weather in Glennallen — Graph

°F

Glennallen Temperature Yesterday

Maximum temperature yesterday: 52 °F (at 3:53 PM)
Minimum temperature yesterday: 24 °F (at 3:53 AM)
Average temperature yesterday: 40 °F

High & Low Weather Summary for the Past Weeks

 TemperatureHumidityPressure
High58 °F (Apr 23, 3:53 PM)91% (Apr 18, 4:53 AM)30.19 "Hg (Apr 18, 4:53 AM)
Low22 °F (Apr 18, 5:53 AM)24% (Apr 20, 5:53 PM)29.60 "Hg (Apr 14, 7:53 PM)
Average41 °F56%29.83 "Hg
* Reported Apr 14 4:53 AM — Apr 29 4:53 AM, Glennallen, Weather by CustomWeather, © 2016

Note: Actual official high and low records may vary slightly from our data, if they occured in-between our weather recording intervals... More about our weather records

Advertising

Glennallen Weather History for the Previous 24 Hours

Scroll right to see more
 ConditionsComfort  
Time TempWeatherWind HumidityBarometerVisibility
4:53 AM
Fri, Apr 29
35 °FPassing clouds.9 mph70%29.79 "Hg10 mi
3:53 AM35 °FClear.8 mph67%29.78 "Hg10 mi
2:53 AM38 °FClear.8 mph63%29.76 "Hg10 mi
1:53 AM40 °FClear.9 mph58%29.74 "Hg10 mi
12:53 AM41 °FClear.6 mph55%29.73 "Hg10 mi
11:53 PM
Thu, Apr 28
44 °FPassing clouds.7 mph49%29.71 "Hg10 mi
10:53 PM46 °FOvercast.10 mph44%29.70 "Hg10 mi
9:53 PM47 °FOvercast.6 mph39%29.69 "Hg10 mi
8:53 PM49 °FOvercast.6 mph33%29.66 "Hg10 mi
7:53 PM51 °FMostly cloudy.7 mph29%29.65 "Hg10 mi
6:53 PM52 °FPassing clouds.7 mph27%29.64 "Hg10 mi
5:53 PM52 °FPartly sunny.3 mph25%29.64 "Hg10 mi
4:53 PM51 °FPartly sunny.5 mph28%29.65 "Hg10 mi
3:53 PM52 °FScattered clouds.3 mph24%29.65 "Hg10 mi
2:53 PM49 °FPassing clouds.No wind32%29.67 "Hg10 mi
1:53 PM49 °FSunny.5 mph33%29.68 "Hg10 mi
12:53 PM47 °FSunny.No wind34%29.69 "Hg10 mi
11:53 AM44 °FScattered clouds.6 mph41%29.71 "Hg10 mi
10:53 AM42 °FScattered clouds.No wind49%29.71 "Hg10 mi
9:53 AM38 °FPartly sunny.No wind55%29.72 "Hg10 mi
8:53 AM36 °FPartly sunny.No wind59%29.71 "Hg10 mi
7:53 AM32 °FScattered clouds.6 mph69%29.72 "Hg10 mi
6:53 AM29 °FScattered clouds.8 mph75%29.73 "Hg10 mi
Weather by CustomWeather, © 2016

See weather overviewHow to use our weather pages